Wind_Speed
20 18 18 20 18 17 17 17 20 19 17 18 19 21 21 20 20 20 20 20 20 21 21 21 21 22 23 22 23 24 25 25 25 25 26 26 25 25 24 25 24 24 24 23
22 19 18 18 18 18 19 19 19 20 18 18 21 22 23 23 21 21 22 21 22 22 22 23 24 25 25 26 26 26 26 27 27 27 27 27 26 25 25 26 26 26 25 25
23 21 20 21 19 20 20 21 20 20 22 21 24 23 23 23 24 23 24 23 24 24 24 25 26 26 27 27 27 28 28 28 28 28 28 28 28 27 27 27 27 27 27 27
23 22 23 21 21 21 21 22 22 24 25 24 24 25 25 25 25 25 25 25 26 26 26 27 27 28 28 28 28 28 29 28 29 29 29 29 28 28 29 30 29 28 28 28
24 24 24 22 22 22 23 24 25 26 27 26 25 26 26 27 27 27 27 27 27 27 27 28 28 28 28 28 29 29 29 29 30 29 29 29 30 30 31 31 30 30 29 28
26 24 24 23 23 25 26 27 28 27 27 26 26 27 27 28 28 28 28 28 28 28 27 28 28 28 29 29 30 30 30 31 30 31 31 31 31 31 31 31 30 30 30 30
25 25 25 25 25 26 27 28 28 28 28 27 28 28 29 29 29 29 28 28 27 28 28 28 28 29 30 30 30 31 31 31 31 31 31 32 32 32 32 32 31 31 31 31
26 26 26 26 26 27 28 28 28 28 29 29 30 29 29 29 30 30 29 28 28 28 28 29 29 29 30 31 31 31 31 31 31 31 32 32 32 32 32 32 31 32 32 32
27 27 27 28 28 28 29 29 29 29 30 31 31 30 30 30 30 29 28 28 29 29 30 30 30 30 31 31 31 31 31 32 31 31 31 32 32 32 32 32 32 32 32 32
27 28 28 29 28 27 29 30 29 29 29 30 31 31 31 31 31 30 29 29 30 30 31 31 31 31 31 31 31 31 31 31 31 31 32 32 33 33 33 34 34 34 33 33
29 30 29 29 30 29 30 31 30 29 29 29 30 30 31 31 31 31 30 30 31 31 31 31 31 31 32 32 32 32 32 32 32 32 32 33 33 33 34 35 34 34 34 33
30 30 30 29 28 28 29 29 29 29 28 29 29 29 30 30 31 30 30 31 31 31 31 31 32 32 32 32 31 32 32 33 33 33 34 35 34 34 34 34 34 34 35 35
30 29 29 29 28 27 28 28 29 29 29 29 29 29 29 30 30 31 32 32 32 32 32 32 32 32 32 32 32 32 33 33 34 34 35 35 35 35 34 35 35 34 35 34
30 30 30 30 28 28 28 29 29 30 30 30 30 30 30 31 31 32 32 32 32 32 31 31 32 31 31 32 32 33 33 33 34 34 35 35 35 36 36 36 35 35 34 33
30 30 29 29 29 29 29 29 29 30 31 30 30 30 31 31 31 31 32 32 32 32 31 31 31 31 32 32 32 33 33 33 34 34 35 35 35 36 36 36 35 34 33 32
30 29 29 29 29 29 29 29 29 29 30 31 30 30 31 31 31 32 32 32 32 32 32 32 31 31 32 32 33 33 33 34 34 35 35 35 35 35 36 36 35 34 32 32
28 28 29 28 28 29 29 29 29 30 30 31 31 31 31 31 31 32 32 32 32 32 32 32 32 32 31 32 33 33 34 34 34 35 35 35 35 35 35 35 34 33 32 32
26 26 27 28 28 28 28 29 29 29 29 30 31 30 30 31 31 31 31 31 31 31 31 32 32 32 32 32 32 33 34 34 35 34 34 34 34 35 35 35 34 33 32 32
26 26 27 28 28 28 28 28 29 29 29 29 30 30 30 30 31 31 30 30 30 31 31 31 31 32 31 31 32 33 33 33 33 33 34 34 34 34 33 33 33 33 33 33
26 26 26 26 27 27 27 28 28 28 28 28 28 28 28 29 29 29 29 29 29 30 30 30 31 31 31 31 31 31 31 32 32 33 33 33 33 33 33 33 33 33 33 32
25 25 25 25 26 26 27 27 27 27 27 27 27 27 28 28 28 28 28 28 29 29 29 29 30 29 29 29 30 30 30 30 31 31 32 32 32 32 32 32 32 32 32 31
24 24 23 24 24 25 25 25 25 25 25 25 25 26 26 27 27 27 27 27 28 28 29 28 28 27 27 28 29 29 29 29 30 30 31 31 31 32 32 32 31 31 30 30
23 23 23 24 24 24 24 24 24 24 24 24 25 26 26 26 26 27 27 28 27 27 27 27 27 27 28 28 29 29 29 29 29 30 30 30 31 31 31 30 30 30 29 29
22 22 23 23 22 22 23 23 23 23 24 24 24 24 25 25 26 26 26 27 27 26 26 26 27 27 27 28 28 28 28 28 29 29 30 30 30 29 29 29 28 28 28 27
21 22 22 22 23 23 23 24 24 24 24 24 24 23 23 23 24 24 24 24 24 24 25 25 25 25 26 26 26 26 27 28 29 29 30 30 30 30 29 28 28 27 26 25
20 20 20 21 22 22 22 23 24 23 23 23 23 22 22 22 22 22 22 22 23 23 23 23 23 23 23 24 25 26 27 27 27 28 29 29 29 29 28 28 26 26 25 25
20 20 20 21 21 21 22 22 22 21 21 21 21 21 21 21 21 21 21 21 21 21 21 21 21 22 22 23 24 25 26 26 26 27 28 28 27 26 25 25 24 24 24 24
Wind_Direction
238 241 247 248 249 250 251 256 261 265 272 278 277 281 282 285 287 288 290 292 294 296 297 298 298 300 301 302 303 303 304 306 307 308 308 306 306 306 307 307 306 306 304 304
240 243 247 252 252 253 254 257 265 271 271 273 276 281 283 286 288 288 287 288 291 293 294 295 296 297 298 300 300 302 304 305 306 307 307 307 306 303 304 305 304 303 302 302
239 244 248 252 255 255 257 258 261 267 270 271 274 278 281 284 286 288 288 288 289 289 291 293 295 295 296 298 299 301 302 302 303 304 303 304 304 302 302 303 303 303 303 301
242 244 247 251 255 257 259 260 260 261 266 272 277 280 280 281 283 285 288 288 288 290 290 292 293 295 296 296 299 300 301 300 302 302 301 303 305 303 302 301 301 301 301 300
243 246 248 251 252 255 258 260 261 264 267 271 276 278 278 281 283 284 285 287 287 288 289 290 292 294 296 297 298 298 300 299 300 301 303 304 304 302 302 302 300 300 301 299
244 245 251 253 253 256 260 263 266 268 270 273 276 278 280 282 284 285 284 285 286 287 288 290 292 294 295 296 296 297 297 297 298 300 302 303 303 303 302 302 300 299 300 299
245 246 249 249 252 257 259 262 267 270 272 275 276 278 280 282 283 285 284 284 285 287 289 291 293 294 294 295 296 296 297 297 298 299 301 302 302 302 302 302 301 300 300 298
245 247 248 249 252 255 259 263 266 269 272 274 277 278 279 281 283 283 282 283 285 287 288 290 292 293 295 295 296 296 296 296 296 298 299 301 301 302 302 302 301 301 300 299
245 247 252 253 253 260 264 266 268 269 272 275 277 278 279 281 282 281 282 284 285 287 288 289 290 291 293 294 295 295 295 296 295 297 298 300 301 301 302 302 300 301 301 300
244 246 252 257 260 262 264 266 268 271 273 275 276 277 279 280 281 282 284 285 285 286 288 289 290 290 291 292 293 294 295 296 296 297 298 299 299 300 301 301 300 301 301 301
246 250 253 255 258 262 266 269 270 270 272 275 277 278 279 281 282 282 285 285 285 286 288 289 290 290 291 290 291 293 294 295 296 297 297 298 298 299 300 300 301 301 301 301
248 251 254 259 261 263 266 269 271 272 274 276 278 279 281 282 283 283 286 287 287 288 288 289 289 289 290 291 292 292 294 294 295 295 296 297 298 298 299 300 300 300 301 302
252 254 257 259 261 263 266 268 270 274 277 278 279 280 281 283 284 285 287 288 287 287 288 289 290 290 291 291 291 292 294 295 294 294 295 296 297 298 299 300 300 300 301 302
254 257 258 259 261 263 265 267 270 273 276 278 279 279 281 282 283 285 287 288 288 287 287 288 289 291 291 291 292 292 293 295 296 296 296 296 297 298 300 301 301 300 301 301
251 254 257 259 261 263 266 268 270 273 276 278 279 280 281 283 283 285 286 287 287 287 287 288 289 290 290 291 292 293 293 294 295 297 297 297 298 299 300 301 302 302 301 301
251 253 257 260 262 264 267 269 271 273 275 278 279 280 281 283 284 285 287 287 287 287 287 288 290 290 290 290 291 292 293 294 295 296 298 298 299 299 300 300 301 301 300 300
251 253 256 260 263 265 267 270 272 274 276 279 280 281 282 282 283 285 287 286 286 286 287 287 288 290 291 291 291 292 293 294 295 296 298 299 300 300 300 299 301 301 301 301
251 254 257 259 262 265 268 270 273 276 277 280 281 281 283 283 283 284 285 286 286 286 288 289 289 289 291 292 291 292 293 295 296 296 297 299 300 301 301 300 300 301 301 301
252 255 258 260 263 265 267 271 274 276 278 281 282 282 283 284 284 285 284 285 285 286 289 291 292 290 291 293 293 293 294 295 297 297 299 300 301 301 301 301 301 301 300 301
254 256 259 261 263 266 268 271 274 276 279 281 281 283 284 285 285 285 285 286 286 289 291 293 294 294 294 295 295 295 295 296 298 299 300 300 302 302 301 301 302 302 301 300
254 257 258 261 264 268 270 273 275 277 279 280 282 284 284 283 284 284 286 288 289 291 292 293 295 294 294 296 297 298 298 299 300 301 301 302 303 303 301 301 302 302 301 301
253 256 259 262 266 268 271 274 276 278 280 283 284 285 285 284 284 284 286 288 290 291 292 295 295 296 296 298 300 300 300 300 302 303 303 303 303 303 302 301 301 301 302 301
255 257 259 263 266 267 271 275 276 278 281 284 286 286 287 288 288 288 289 290 291 293 294 296 296 297 298 299 300 300 301 302 303 304 304 304 304 303 302 302 301 301 300 301
256 259 261 264 266 268 271 275 278 281 284 285 287 288 289 289 291 293 293 293 292 293 294 296 297 298 299 300 300 300 301 303 303 304 305 306 307 306 304 304 304 303 301 300
259 261 263 264 267 270 272 275 278 281 284 285 286 288 291 293 294 295 295 295 294 295 297 299 300 300 301 301 302 302 303 305 305 306 307 307 308 308 308 308 306 305 303 300
261 263 265 267 269 271 273 277 280 281 282 285 287 289 292 294 295 297 298 298 298 299 301 303 302 301 302 304 304 304 306 307 307 309 311 311 311 310 310 309 308 308 306 303
260 263 267 269 271 273 275 278 281 284 286 288 292 294 295 295 297 298 298 299 298 299 300 302 304 305 306 306 307 307 310 312 312 312 313 314 315 314 313 312 311 311 309 308
Height
5898 5900 5901 5902 5904 5905 5906 5906 5905 5904 5904 5902 5901 5899 5898 5897 5897 5896 5895 5894 5893 5892 5890 5889 5887 5885 5883 5881 5879 5877 5875 5873 5871 5868 5866 5863 5861 5859 5857 5854 5852 5850 5847 5845
5892 5895 5897 5897 5899 5900 5901 5902 5901 5900 5900 5898 5896 5895 5893 5893 5892 5891 5890 5889 5888 5887 5886 5884 5883 5881 5879 5876 5873 5872 5870 5868 5865 5863 5860 5857 5855 5853 5851 5849 5846 5844 5842 5839
5887 5890 5891 5892 5895 5895 5896 5896 5896 5895 5894 5892 5891 5890 5889 5888 5887 5887 5886 5884 5883 5882 5881 5879 5877 5875 5873 5871 5869 5866 5864 5861 5859 5856 5854 5851 5849 5847 5844 5842 5840 5837 5835 5832
5881 5884 5885 5889 5890 5890 5890 5890 5890 5889 5888 5887 5886 5885 5884 5883 5882 5881 5880 5879 5878 5876 5874 5873 5871 5869 5867 5864 5862 5860 5857 5854 5850 5849 5847 5844 5842 5840 5837 5835 5832 5830 5828 5825
5875 5877 5879 5882 5883 5883 5883 5883 5883 5882 5882 5881 5881 5879 5878 5877 5876 5875 5874 5873 5872 5870 5868 5866 5865 5863 5860 5858 5855 5853 5851 5848 5845 5842 5840 5837 5835 5832 5830 5827 5824 5822 5820 5818
5868 5870 5872 5876 5876 5876 5878 5876 5876 5875 5875 5875 5875 5874 5873 5871 5870 5869 5868 5867 5865 5863 5862 5860 5858 5856 5854 5851 5849 5846 5844 5841 5838 5836 5833 5830 5827 5825 5822 5819 5817 5814 5812 5810
5861 5863 5865 5867 5867 5870 5871 5870 5869 5868 5868 5868 5868 5867 5866 5864 5863 5862 5860 5859 5858 5857 5855 5853 5851 5849 5847 5844 5841 5839 5836 5834 5831 5828 5825 5822 5820 5817 5814 5812 5809 5807 5804 5802
5854 5856 5860 5859 5860 5861 5861 5861 5861 5862 5861 5861 5860 5859 5858 5857 5855 5854 5853 5852 5851 5850 5848 5846 5844 5842 5839 5837 5834 5831 5829 5826 5823 5821 5818 5815 5812 5809 5806 5804 5801 5798 5796 5793
5848 5851 5851 5851 5851 5852 5853 5854 5854 5854 5854 5853 5852 5851 5851 5849 5848 5846 5845 5844 5843 5842 5840 5838 5836 5834 5832 5829 5826 5824 5821 5818 5816 5813 5810 5807 5804 5801 5799 5796 5793 5790 5787 5784
5840 5842 5843 5844 5844 5845 5845 5846 5847 5847 5846 5845 5844 5843 5842 5841 5841 5839 5837 5836 5835 5834 5832 5830 5828 5826 5823 5821 5818 5816 5813 5810 5808 5805 5802 5800 5797 5793 5790 5787 5784 5781 5778 5776
5832 5834 5835 5837 5837 5838 5838 5838 5838 5838 5838 5837 5836 5835 5834 5833 5832 5831 5829 5827 5826 5825 5823 5821 5819 5817 5815 5812 5810 5807 5805 5802 5799 5797 5794 5791 5788 5785 5782 5779 5775 5772 5769 5767
5824 5826 5828 5829 5830 5830 5830 5831 5830 5830 5830 5829 5828 5827 5826 5825 5824 5822 5820 5819 5817 5816 5814 5812 5810 5809 5806 5804 5801 5799 5796 5794 5791 5788 5786 5783 5780 5777 5774 5771 5767 5764 5760 5757
5817 5818 5820 5821 5822 5822 5822 5822 5822 5822 5822 5821 5820 5819 5818 5817 5815 5813 5812 5810 5809 5807 5805 5804 5801 5800 5798 5795 5792 5790 5787 5785 5782 5779 5776 5774 5771 5768 5765 5762 5759 5755 5752 5749
5810 5811 5812 5813 5813 5814 5814 5814 5814 5814 5813 5812 5812 5811 5810 5808 5807 5805 5804 5802 5800 5798 5796 5795 5792 5790 5789 5786 5784 5781 5779 5776 5773 5770 5767 5764 5762 5759 5755 5753 5750 5746 5743 5739
5802 5802 5804 5805 5806 5806 5806 5806 5806 5805 5805 5804 5803 5802 5801 5799 5798 5797 5795 5793 5791 5789 5787 5786 5783 5781 5779 5777 5775 5772 5770 5767 5765 5762 5758 5755 5753 5750 5746 5743 5740 5737 5734 5731
5794 5795 5796 5797 5797 5798 5798 5798 5798 5797 5796 5795 5794 5793 5792 5790 5789 5787 5786 5784 5782 5780 5778 5776 5775 5772 5770 5768 5765 5763 5761 5758 5756 5753 5750 5747 5744 5741 5737 5734 5731 5728 5725 5722
5786 5787 5788 5789 5789 5789 5790 5790 5789 5789 5788 5786 5785 5784 5783 5781 5780 5778 5777 5775 5773 5771 5769 5767 5765 5763 5761 5758 5756 5754 5752 5749 5747 5744 5741 5738 5735 5732 5729 5725 5722 5719 5716 5713
5778 5779 5780 5781 5782 5782 5782 5781 5781 5780 5779 5778 5777 5775 5774 5772 5771 5769 5767 5766 5764 5762 5761 5758 5756 5754 5752 5750 5747 5745 5743 5740 5738 5735 5732 5730 5726 5723 5720 5717 5714 5711 5708 5705
5771 5772 5773 5773 5774 5774 5774 5774 5773 5772 5771 5770 5768 5767 5765 5763 5762 5760 5758 5757 5755 5754 5752 5750 5747 5745 5743 5741 5738 5736 5734 5731 5728 5726 5723 5720 5718 5715 5711 5708 5705 5702 5699 5696
5765 5765 5766 5767 5767 5767 5767 5766 5765 5765 5764 5762 5760 5758 5757 5756 5754 5752 5750 5748 5747 5745 5744 5742 5739 5737 5735 5733 5730 5728 5725 5723 5720 5718 5715 5712 5709 5706 5703 5700 5697 5694 5691 5688
5758 5759 5759 5760 5760 5760 5759 5759 5758 5757 5756 5754 5752 5751 5749 5748 5746 5744 5742 5741 5739 5737 5735 5734 5732 5729 5727 5725 5722 5720 5717 5715 5712 5709 5706 5703 5700 5697 5695 5692 5689 5685 5682 5680
5751 5752 5753 5753 5753 5753 5753 5752 5751 5750 5748 5746 5745 5743 5742 5740 5738 5736 5735 5733 5732 5730 5728 5726 5724 5722 5720 5717 5715 5712 5710 5707 5704 5701 5698 5695 5692 5689 5686 5683 5680 5677 5674 5671
5745 5746 5747 5746 5746 5746 5746 5745 5744 5743 5741 5740 5738 5736 5734 5733 5731 5729 5728 5726 5724 5722 5721 5719 5717 5714 5712 5710 5707 5705 5702 5700 5697 5694 5690 5688 5684 5681 5678 5674 5671 5669 5666 5663
5739 5740 5740 5740 5740 5740 5740 5739 5738 5736 5735 5733 5731 5729 5728 5726 5724 5722 5720 5719 5717 5715 5713 5712 5710 5707 5705 5703 5700 5698 5695 5693 5690 5686 5683 5679 5676 5672 5669 5666 5663 5660 5658 5655
5734 5734 5734 5734 5734 5734 5733 5733 5731 5730 5728 5727 5725 5723 5721 5719 5717 5715 5713 5711 5709 5708 5706 5705 5702 5700 5698 5696 5694 5691 5689 5686 5682 5679 5675 5672 5668 5664 5661 5658 5655 5652 5650 5648
5728 5728 5728 5729 5728 5728 5727 5726 5725 5724 5722 5720 5719 5717 5715 5714 5712 5710 5708 5706 5703 5702 5700 5698 5696 5694 5692 5690 5687 5685 5682 5679 5676 5672 5669 5665 5661 5657 5654 5651 5648 5645 5643 5641
5722 5722 5722 5722 5722 5722 5721 5720 5719 5717 5716 5715 5714 5712 5710 5709 5707 5705 5703 5701 5699 5697 5695 5693 5691 5689 5687 5685 5682 5679 5676 5673 5670 5666 5663 5659 5655 5651 5648 5645 5642 5640 5638 5635